BEL9VN LGIR-EBBR

Flight info

Callsign BEL9VN
Flight time N/A
Altitude 38000
Route EPALO M749 DIRMI UL613 YNN UL611 TUMBO DCT RODON DCT VEKEN DCT ERKIR DCT BABEG DCT IDOVI Z104 GESLO N852 LNO
Aircraft A320/M-DE3FGHIJ1LORVWY/H

Departure

Time N/A
Airport Heraklion International Nikos Kazantzakis Airport (LGIR)

Arrival

Time 2026-05-01 08:05
Airport Brussels Airport (EBBR)
Time Latitude Longitude Altitude Speed Heading
2026-05-01 07:23 48.91117 9.27668 38363 ft 436 kts 315°
2026-05-01 07:24 48.97301 9.17525 38349 ft 436 kts 315°
2026-05-01 07:24 49.01388 9.10786 38352 ft 436 kts 315°
2026-05-01 07:25 49.05503 9.03995 38350 ft 436 kts 315°
2026-05-01 07:25 49.09613 8.97193 38357 ft 436 kts 314°
2026-05-01 07:26 49.13719 8.90376 38359 ft 436 kts 315°
2026-05-01 07:26 49.17829 8.83548 38348 ft 436 kts 314°
2026-05-01 07:27 49.21935 8.76711 38365 ft 437 kts 314°
2026-05-01 07:27 49.26029 8.69855 38377 ft 437 kts 314°
2026-05-01 07:28 49.30131 8.62971 38389 ft 437 kts 314°
2026-05-01 07:28 49.34226 8.56083 38396 ft 437 kts 314°
2026-05-01 07:29 49.38317 8.49180 38400 ft 437 kts 314°
2026-05-01 07:29 49.42385 8.42321 38375 ft 437 kts 314°
2026-05-01 07:30 49.46472 8.35400 38383 ft 437 kts 314°
2026-05-01 07:30 49.50551 8.28464 38389 ft 437 kts 314°
2026-05-01 07:31 49.53966 8.22652 38393 ft 437 kts 314°
2026-05-01 07:32 49.64100 8.05308 38384 ft 436 kts 314°
2026-05-01 07:33 49.70176 7.94848 38391 ft 436 kts 313°
2026-05-01 07:33 49.76245 7.84357 38391 ft 436 kts 313°
2026-05-01 07:34 49.82311 7.73845 38392 ft 436 kts 313°
2026-05-01 07:35 49.86346 7.66827 38383 ft 436 kts 312°
2026-05-01 07:35 49.90375 7.59796 38381 ft 436 kts 312°
2026-05-01 07:36 49.94402 7.52745 38385 ft 436 kts 312°
2026-05-01 07:36 49.98422 7.45692 38376 ft 436 kts 312°
2026-05-01 07:37 50.04435 7.35047 38371 ft 437 kts 308°
2026-05-01 07:37 50.07311 7.26763 38365 ft 438 kts 288°
2026-05-01 07:38 50.08303 7.17433 38364 ft 439 kts 274°
2026-05-01 07:39 50.08907 7.03191 38363 ft 440 kts 274°
2026-05-01 07:39 50.09492 6.88929 38361 ft 440 kts 273°
2026-05-01 07:40 50.09356 6.79445 38331 ft 440 kts 269°
2026-05-01 07:40 50.09154 6.69859 38334 ft 440 kts 269°
2026-05-01 07:41 50.08967 6.60380 38335 ft 440 kts 269°
2026-05-01 07:42 50.08659 6.46089 38318 ft 440 kts 269°
2026-05-01 07:42 50.08432 6.36565 38320 ft 440 kts 268°
2026-05-01 07:43 50.08198 6.27029 38319 ft 440 kts 268°
2026-05-01 07:43 50.07848 6.12734 38322 ft 440 kts 268°
2026-05-01 07:44 50.09033 6.03571 38302 ft 435 kts 301°
2026-05-01 07:44 50.13406 5.97358 38287 ft 430 kts 338°
2026-05-01 07:45 50.19007 5.94065 38272 ft 432 kts 340°
2026-05-01 07:45 50.24681 5.90808 38275 ft 435 kts 340°
2026-05-01 07:46 50.30342 5.87539 38063 ft 438 kts 340°
2026-05-01 07:46 50.36176 5.84146 35770 ft 455 kts 340°
2026-05-01 07:47 50.39155 5.82406 34759 ft 460 kts 340°
2026-05-01 07:47 50.42166 5.80645 33721 ft 463 kts 340°
2026-05-01 07:47 50.45179 5.78881 32860 ft 461 kts 340°
2026-05-01 07:47 50.48186 5.77117 31994 ft 461 kts 341°
2026-05-01 07:48 50.54161 5.73619 30610 ft 453 kts 340°
2026-05-01 07:48 50.57024 5.71598 29942 ft 450 kts 330°
2026-05-01 07:48 50.59540 5.68709 29208 ft 447 kts 317°
2026-05-01 07:49 50.61614 5.65099 28553 ft 443 kts 309°
2026-05-01 07:49 50.65418 5.57621 26724 ft 432 kts 309°
2026-05-01 07:49 50.67287 5.53935 25657 ft 428 kts 309°
2026-05-01 07:50 50.69134 5.50292 24659 ft 423 kts 309°
2026-05-01 07:50 50.72762 5.43136 22615 ft 413 kts 308°
2026-05-01 07:50 50.74543 5.39611 21621 ft 408 kts 308°
2026-05-01 07:51 50.76302 5.36122 20664 ft 404 kts 308°
2026-05-01 07:51 50.78039 5.32668 19745 ft 399 kts 308°
2026-05-01 07:51 50.79758 5.29247 18899 ft 395 kts 308°
2026-05-01 07:52 50.83106 5.22579 17855 ft 384 kts 308°
2026-05-01 07:52 50.84763 5.19279 17367 ft 382 kts 307°
2026-05-01 07:52 50.86323 5.15901 16887 ft 379 kts 298°
2026-05-01 07:53 50.87912 5.08136 15938 ft 368 kts 272°
2026-05-01 07:53 50.88094 5.04106 15478 ft 366 kts 271°
2026-05-01 07:53 50.88266 5.00146 15020 ft 365 kts 271°
2026-05-01 07:53 50.88440 4.96146 14565 ft 363 kts 271°
2026-05-01 07:54 50.88793 4.88128 13591 ft 361 kts 271°
2026-05-01 07:55 50.89297 4.76416 12190 ft 353 kts 271°
2026-05-01 07:55 50.89626 4.68702 11253 ft 349 kts 271°
2026-05-01 07:56 50.90094 4.57434 10348 ft 326 kts 270°
2026-05-01 07:56 50.90566 4.50520 9978 ft 308 kts 275°
2026-05-01 07:57 50.90893 4.47192 9296 ft 305 kts 275°
2026-05-01 07:57 50.91535 4.40618 8026 ft 299 kts 275°
2026-05-01 07:58 50.92169 4.34073 7074 ft 302 kts 276°
2026-05-01 07:58 50.92792 4.27621 5979 ft 292 kts 276°
2026-05-01 07:59 50.93193 4.21346 4673 ft 282 kts 261°
2026-05-01 07:59 50.91460 4.16390 3524 ft 253 kts 205°
2026-05-01 08:00 50.86197 4.19784 2486 ft 219 kts 100°
2026-05-01 08:01 50.87101 4.26209 2238 ft 174 kts 84°
2026-05-01 08:01 50.87313 4.27976 2163 ft 154 kts 85°
2026-05-01 08:01 50.87505 4.29606 2095 ft 148 kts 86°
2026-05-01 08:02 50.87859 4.32751 1898 ft 143 kts 87°
2026-05-01 08:02 50.88026 4.34274 1669 ft 139 kts 86°
2026-05-01 08:03 50.88364 4.37272 1292 ft 137 kts 84°
2026-05-01 08:03 50.88533 4.38745 1122 ft 134 kts 85°
2026-05-01 08:03 50.88869 4.41614 747 ft 131 kts 81°
2026-05-01 08:04 50.89532 4.44330 373 ft 133 kts 68°
2026-05-01 08:04 50.90276 4.46937 127 ft 109 kts 68°
2026-05-01 08:05 50.90525 4.47768 119 ft 19 kts 64°
2026-05-01 08:05 50.90583 4.47963 120 ft 20 kts 65°
2026-05-01 08:05 50.90640 4.48163 122 ft 13 kts 65°
2026-05-01 08:06 50.90614 4.48413 118 ft 1 kts 120°
2026-05-01 08:07 50.90614 4.48414 118 ft 1 kts 120°
2026-05-01 08:07 50.90592 4.48471 121 ft 5 kts 121°
2026-05-01 08:08 50.90569 4.48532 119 ft 8 kts 120°
2026-05-01 08:08 50.90534 4.48694 119 ft 7 kts 79°
2026-05-01 08:09 50.90478 4.48775 118 ft 3 kts 155°